Regional Weather Roundup
Issued by NWS Kansas City/Pleasant Hill, MO

Home | Current Version | Previous Version | Text Only | Print | Product List | Glossary On
Versions: 1 2 3 4 5 6 7 8 9 10 11 12 13 14 15 16 17 18 19 20 21 22 23 24 25 26 27 28 29 30 31 32 33 34 35 36 37 38 39 40 41 42 43 44 45 46 47 48 49 50
000
ASUS43 KEAX 062110
RWREAX

WEATHER ROUNDUP FOR EASTERN KANSAS AND NORTHWEST MISSOURI
NATIONAL WEATHER SERVICE KANSAS CITY/PLEASANT HILL MO
300 PM CST FRI MAR 06 2015

KSZ040-057-103>105-MOZ028-029-037-043-062200-
...KANSAS CITY METROPOLITAN AREA...

CITY           SKY/WX    TMP DP  RH WIND       PRES   REMARKS
K.C. INTL      MOSUNNY   58  25  28 W10       30.23F
K.C. DOWNTOWN  SUNNY     58  25  28 W10G21    30.24F
LEES SUMMIT    SUNNY     55  27  34 SW13G22   30.25F
OLATHE - IXD   SUNNY     57  28  33 SW14G24   30.25F
OLATHE - OJC   SUNNY     56  29  35 SW14G22   30.24F
LAWRENCE       SUNNY     59  24  26 SW14      30.24F

$$

MOZ001>008-011>017-020>025-030>033-038>040-044>046-053-054-062200-
...NORTHERN AND CENTRAL MISSOURI...

CITY           SKY/WX    TMP DP  RH WIND       PRES   REMARKS
ST. JOSEPH     SUNNY     59  21  23 W10       30.20F
MOSBY          CLEAR     55  23  28 SW10      30.23F
WARRENSBURG    SUNNY     54  28  37 SW15G24   30.27F
WHITEMAN AFB   SUNNY     53  29  40 SW13G24   30.26S
CLINTON        SUNNY     54  32  43 SW17G23   30.29F
SEDALIA        SUNNY     52  30  43 SW16G25   30.27F
WARSAW         NOT AVBL
MARSHALL       SUNNY     55  32  41 SW13G21   30.25F
CHILLICOTHE      N/A     58  25  28 W12G20    30.22F
MOBERLY        SUNNY     52  27  37 SW17      30.24F
KIRKSVILLE     SUNNY     54  23  30 W12       30.20F

$$

MOZ041-047>049-056>058-063>065-088>090-097-062200-
...EASTERN AND SOUTHERN MISSOURI...

CITY           SKY/WX    TMP DP  RH WIND       PRES   REMARKS
ST. LOUIS INTL NOT AVBL
SPIRIT OF STL  SUNNY     49  23  36 SW16G25   30.28F
COLUMBIA       SUNNY     53  27  36 W18G26    30.25F
JEFFERSON CITY SUNNY     55  23  28 SW16G24   30.26F
MEXICO         SUNNY     50  34  53 W16       30.25F
HANNIBAL       SUNNY     48  23  37 SW9       30.23F
ROLLA          SUNNY     49  26  41 SW17G25   30.27F
OSAGE BEACH    SUNNY     54  27  35 SW15G24   30.29F
SPRINGFIELD    SUNNY     50  28  42 SW18      30.34F
BRANSON        SUNNY     50  25  37 W9G17     30.39F
NEVADA         SUNNY     54  30  40 SW16G24   30.31F
JOPLIN         SUNNY     52  29  41 SW20G28   30.35F
WEST PLAINS    SUNNY     42  22  44 SW10      30.39F

$$

IAZ060-094-KSZ022-034>040-054-083-096-NEZ052-066-093-062200-
...KANSAS...SOUTHEAST NEBRASKA AND IOWA...

CITY           SKY/WX    TMP DP  RH WIND       PRES   REMARKS
TOPEKA         SUNNY     61  21  21 W13G21    30.23F
MANHATTAN      SUNNY     62  18  18 W15G22    30.21F
EMPORIA        SUNNY     59  26  28 SW16G24   30.25F
CHANUTE        SUNNY     58  28  32 SW18G28   30.30F
WICHITA        SUNNY     60  26  27 SW17G25   30.27F
OMAHA          MOSUNNY   62  16  16 W15G25    30.11F
LINCOLN        SUNNY     63  14  15 W13       30.15F
FALLS CITY     SUNNY     62  16  16 SW15      30.18F
LAMONI         SUNNY     54  24  31 W14       30.17F
DES MOINES     PTSUNNY   53  21  28 W15       30.13F

$$




USA.gov is the U.S. government's official web portal to all federal, state and local government web resources and services.